SCP
0 0 0 0 0 0 0 0 0 0 0 0 0 -0 0 0 0 0 0 0 0 0 0 0 0 0 0
0 0 0 0 0 0 0 0 0 0 0 0 0 0 0 0 0 0 0 0 0 0 0 0 0 0 0
0 0 0 0 0 0 0 0 0 0 0 0 0 0 0 0 0 0 0 0 0 0 0 0 0 0 0
0 0 0 0 0 0 0 0 0 0 0 0 0 0 0 0 0 0 0 0 0 0 0 0 0 0 0
0 0 0 0 0 0 0 0 0 0 0 0 0 0 0 0 0 0 0 0 0 0 0 0 0 0 0
0 0 0 0 0 0 0 0 0 0 0 0 0 0 0 0 0 0 0 0 0 0 0 0 0 0 0
0 0 0 0 0 0 0 0 0 0 0 0 0 0 0 0 0 0 0 0 0 0 0 0 0 0 0
0 0 0 0 0 0 0 0 0 0 0 0 0 0 0 0 0 0 0 0 0 0 0 0 0 0 0
0 0 0 0 0 0 0 0 0 0 0 0 0 0 0 0 0 0 0 0 0 0 0 0 0 0 0
0 0 0 0 0 0 0 0 0 0 0 0 0 0 0 0 0 0 0 0 0 0 0 0 0 0 0
0 0 0 0 0 0 0 0 0 0 0 0 0 0 0 0 0 0 0 0 0 0 0 0 0 0 0
0 0 0 0 0 0 0 0 0 0 0 0 0 0 0 0 0 0 0 0 0 0 0 0 0 0 0
0 0 0 0 0 0 0 0 0 0 0 0 0 0 0 0 0 0 0 0 0 0 0 0 0 0 0
0 0 0 0 0 0 0 0 0 0 0 0 0 0 0 0 0 0 0 0 0 0 0 0 0 0 0
0 0 0 0 0 0 0 0 0 0 0 0 0 0 0 0 0 0 0 0 0 0 0 0 0 0 0
0 0 0 0 0 0 0 0 0 0 0 0 0 0 0 0 0 0 0 0 0 0 0 0 0 0 0
0 0 0 0 0 0 0 0 0 0 0 0 0 0 0 0 0 0 0 0 0 0 0 0 0 0 0
Wind_Speed_500mb
88 98 93 85 76 74 73 74 69 64 62 55 48 40 28 27 24 19 16 13 11 10 13 17 19 22 29
93 100 104 94 83 79 75 74 73 70 65 59 53 44 35 31 29 25 22 19 16 14 16 17 19 21 26
99 103 104 105 87 79 76 76 75 71 67 61 55 50 44 37 37 32 26 23 20 19 19 18 20 21 23
96 99 107 107 98 93 86 83 78 75 70 67 62 56 51 44 40 40 31 25 23 22 21 20 21 22 22
99 98 94 99 107 105 97 90 81 82 81 75 70 66 61 54 46 45 38 32 27 25 23 22 22 23 24
109 103 97 111 113 109 107 98 98 88 88 83 77 74 70 62 54 51 42 36 33 30 27 25 23 24 25
118 109 104 103 105 113 116 115 97 95 92 89 84 81 75 65 59 54 50 42 39 34 32 29 26 26 26
99 96 98 92 85 91 119 107 95 89 94 90 87 90 78 72 65 59 56 47 44 38 37 33 30 28 26
102 96 93 92 87 93 96 106 93 85 90 90 97 89 83 78 72 64 58 55 47 44 43 38 32 29 27
95 86 82 89 85 82 89 103 102 96 104 93 90 87 85 87 79 73 68 63 56 50 48 44 38 30 30
103 92 81 80 84 89 86 79 90 97 92 99 94 83 70 40 76 80 76 69 63 57 54 51 42 34 33
107 96 90 84 86 91 77 81 80 78 73 61 86 85 85 76 52 45 75 75 68 62 58 52 43 36 38
116 105 96 89 83 87 86 78 78 76 71 59 61 61 71 77 70 63 45 61 66 64 61 55 49 37 36
108 98 97 96 89 94 92 88 83 78 68 65 57 60 60 59 58 60 59 46 51 59 57 54 49 41 39
100 101 102 98 93 98 96 90 89 85 78 77 66 65 59 51 51 54 57 53 47 45 58 55 51 44 41
101 94 97 104 105 104 95 93 95 88 85 84 78 71 67 61 57 55 56 53 52 49 48 52 54 49 44
100 103 98 98 106 107 99 97 98 90 88 87 82 80 77 75 68 66 58 55 56 52 47 50 54 48 44
Wind_Direction_500mb
193 201 198 201 201 206 201 195 196 198 206 209 209 220 217 212 214 222 232 248 270 298 317 326 338 345 355
190 199 202 201 203 203 201 201 199 203 206 213 215 218 226 229 227 232 238 249 267 284 297 311 321 330 344
188 199 199 201 200 205 204 205 206 206 210 213 219 220 226 234 233 235 239 248 261 274 282 293 304 315 329
194 188 198 200 199 202 203 209 207 208 213 217 221 225 229 232 242 233 238 247 260 270 277 281 290 301 315
191 186 187 188 195 202 207 205 209 213 212 215 218 223 226 229 235 247 236 244 254 266 272 276 280 291 303
193 189 188 203 202 200 203 207 205 211 215 217 219 224 227 230 234 241 244 242 250 258 266 270 275 284 293
209 210 203 205 204 202 207 211 206 208 211 217 220 226 231 232 236 239 248 241 243 251 259 264 271 277 284
224 219 218 214 214 220 210 207 212 215 213 215 219 227 228 232 236 240 248 244 238 244 253 259 267 272 277
221 220 220 218 212 200 199 205 200 206 218 220 223 224 229 232 235 238 242 248 247 245 249 253 259 265 269
205 215 217 217 215 220 218 211 209 210 222 212 220 219 227 233 232 235 238 240 243 247 250 249 254 257 264
203 208 210 213 210 211 220 225 218 219 225 215 218 219 216 228 233 231 234 237 238 241 244 246 250 251 254
200 203 205 207 206 208 216 221 227 234 233 229 225 226 221 224 227 227 228 233 235 237 240 246 247 242 244
207 208 213 213 208 204 208 213 221 226 227 229 230 231 231 232 232 229 225 226 230 232 236 239 240 238 235
210 213 212 210 203 205 206 208 213 217 216 222 223 223 226 231 234 233 230 224 231 228 231 234 235 230 233
209 209 209 207 205 207 208 209 212 213 211 214 212 215 220 227 228 225 226 226 228 227 227 230 230 229 232
209 210 212 208 209 209 209 210 213 211 212 214 211 208 212 218 220 222 223 221 225 226 225 227 229 226 228
214 211 207 211 212 209 209 211 213 214 215 218 213 213 212 214 215 217 221 220 220 220 223 225 224 223 228
Wind_Speed_850mb
88 98 93 85 76 74 73 74 69 64 62 55 48 40 28 27 24 19 16 13 11 10 13 17 19 22 29
93 100 104 94 83 79 75 74 73 70 65 59 53 44 35 31 29 25 22 19 16 14 16 17 19 21 26
99 103 104 105 87 79 76 76 75 71 67 61 55 50 44 37 37 32 26 23 20 19 19 18 20 21 23
96 99 107 107 98 93 86 83 78 75 70 67 62 56 51 44 40 40 31 25 23 22 21 20 21 22 22
99 98 94 99 107 105 97 90 81 82 81 75 70 66 61 54 46 45 38 32 27 25 23 22 22 23 24
109 103 97 111 113 109 107 98 98 88 88 83 77 74 70 62 54 51 42 36 33 30 27 25 23 24 25
118 109 104 103 105 113 116 115 97 95 92 89 84 81 75 65 59 54 50 42 39 34 32 29 26 26 26
99 96 98 92 85 91 119 107 95 89 94 90 87 90 78 72 65 59 56 47 44 38 37 33 30 28 26
102 96 93 92 87 93 96 106 93 85 90 90 97 89 83 78 72 64 58 55 47 44 43 38 32 29 27
95 86 82 89 85 82 89 103 102 96 104 93 90 87 85 87 79 73 68 63 56 50 48 44 38 30 30
103 92 81 80 84 89 86 79 90 97 92 99 94 83 70 40 76 80 76 69 63 57 54 51 42 34 33
107 96 90 84 86 91 77 81 80 78 73 61 86 85 85 76 52 45 75 75 68 62 58 52 43 36 38
116 105 96 89 83 87 86 78 78 76 71 59 61 61 71 77 70 63 45 61 66 64 61 55 49 37 36
108 98 97 96 89 94 92 88 83 78 68 65 57 60 60 59 58 60 59 46 51 59 57 54 49 41 39
100 101 102 98 93 98 96 90 89 85 78 77 66 65 59 51 51 54 57 53 47 45 58 55 51 44 41
101 94 97 104 105 104 95 93 95 88 85 84 78 71 67 61 57 55 56 53 52 49 48 52 54 49 44
100 103 98 98 106 107 99 97 98 90 88 87 82 80 77 75 68 66 58 55 56 52 47 50 54 48 44
Wind_Direction_850mb
193 201 198 201 201 206 201 195 196 198 206 209 209 220 217 212 214 222 232 248 270 298 317 326 338 345 355
190 199 202 201 203 203 201 201 199 203 206 213 215 218 226 229 227 232 238 249 267 284 297 311 321 330 344
188 199 199 201 200 205 204 205 206 206 210 213 219 220 226 234 233 235 239 248 261 274 282 293 304 315 329
194 188 198 200 199 202 203 209 207 208 213 217 221 225 229 232 242 233 238 247 260 270 277 281 290 301 315
191 186 187 188 195 202 207 205 209 213 212 215 218 223 226 229 235 247 236 244 254 266 272 276 280 291 303
193 189 188 203 202 200 203 207 205 211 215 217 219 224 227 230 234 241 244 242 250 258 266 270 275 284 293
209 210 203 205 204 202 207 211 206 208 211 217 220 226 231 232 236 239 248 241 243 251 259 264 271 277 284
224 219 218 214 214 220 210 207 212 215 213 215 219 227 228 232 236 240 248 244 238 244 253 259 267 272 277
221 220 220 218 212 200 199 205 200 206 218 220 223 224 229 232 235 238 242 248 247 245 249 253 259 265 269
205 215 217 217 215 220 218 211 209 210 222 212 220 219 227 233 232 235 238 240 243 247 250 249 254 257 264
203 208 210 213 210 211 220 225 218 219 225 215 218 219 216 228 233 231 234 237 238 241 244 246 250 251 254
200 203 205 207 206 208 216 221 227 234 233 229 225 226 221 224 227 227 228 233 235 237 240 246 247 242 244
207 208 213 213 208 204 208 213 221 226 227 229 230 231 231 232 232 229 225 226 230 232 236 239 240 238 235
210 213 212 210 203 205 206 208 213 217 216 222 223 223 226 231 234 233 230 224 231 228 231 234 235 230 233
209 209 209 207 205 207 208 209 212 213 211 214 212 215 220 227 228 225 226 226 228 227 227 230 230 229 232
209 210 212 208 209 209 209 210 213 211 212 214 211 208 212 218 220 222 223 221 225 226 225 227 229 226 228
214 211 207 211 212 209 209 211 213 214 215 218 213 213 212 214 215 217 221 220 220 220 223 225 224 223 228